Location: Houhaj�rvi
(61.2667°N, 23.0167°E)
Time: 17:31:54
(UTC+00:00)

Exosat Rocket - Pass Details

Date: 13 December 2019
Orbit: 760 x 2515 km, 72.3° (Epoch: 22 January)

Event Time Altitude Azimuth Distance (km) Brightness Sun altitude
Rises 15:39:36 0° 197° (SSW) 3,279 7.3 -15.3°
Reaches altitude 10° 15:42:00 10° 193° (SSW) 2,305 6.4 -15.5°
Maximum altitude 15:46:50 53° 117° (ESE) 949 3.7 -16.1°
Enters shadow 15:49:46 24° 51° (NE) 1,618 4.6 -16.4°
